Location: Bernay
(48.6766°N, 2.9386°E)
Time: 15:52:47
(UTC+00:00)

YAOGAN 1 - Pass Details

Date: 12 January 2026
Orbit: 605 x 607 km, 97.8° (Epoch: 10 February)

Event Time Altitude Azimuth Distance (km) Brightness Sun altitude
Rises 17:25:11 0° 142° (SE) 2,855 5.8 -11.1°
Reaches altitude 10° 17:27:28 10° 133° (SE) 1,956 4.9 -11.4°
Maximum altitude 17:31:20 35° 68° (ENE) 984 3.1 -12.0°
Drops below altitude 10° 17:35:14 10° 2° (N) 1,969 4.9 -12.6°
Sets 17:37:33 0° 354° (N) 2,877 5.9 -13.0°
